Satellite: FALCON
Catalog number: 30776
Epoch time:      10327.88742926
Element set:     964
Inclination:      035.4317 deg
RA of node:       154.5230 deg
Eccentricity:    0.0000164
Arg of perigee:   311.9690 deg
Mean anomaly:     048.1013 deg
Mean motion:   15.03968383 rev/day
Decay rate:       9.75e-06 rev/day^2
Epoch rev:           20411
Checksum:              285

Satellite: MAST
Catalog number: 31126
Epoch time:      10327.57471239
Element set:      18
Inclination:      097.9194 deg
RA of node:       001.1892 deg
Eccentricity:    0.0095462
Arg of perigee:   090.3631 deg
Mean anomaly:     270.8530 deg
Mean motion:   14.53646100 rev/day
Decay rate:       1.83e-06 rev/day^2
Epoch rev:           19121
Checksum:              271

Satellite: CAPE1
Catalog number: 31130
Epoch time:      10327.57308330
Element set:      38
Inclination:      097.9207 deg
RA of node:       358.2933 deg
Eccentricity:    0.0104009
Arg of perigee:   099.9501 deg
Mean anomaly:     261.3390 deg
Mean motion:   14.52255483 rev/day
Decay rate:       1.85e-06 rev/day^2
Epoch rev:           19079
Checksum:              288

Satellite: COMPASS
Catalog number: 32787
Epoch time:      10327.17695264
Element set:    0838
Inclination:      097.8771 deg
RA of node:       029.5971 deg
Eccentricity:    0.0016691
Arg of perigee:   125.9473 deg
Mean anomaly:     234.3251 deg
Mean motion:   14.82053188 rev/day
Decay rate:       4.48e-06 rev/day^2
Epoch rev:           13904
Checksum:              327

Satellite: AAUSAT2
Catalog number: 32788
Epoch time:      10327.63670055
Element set:    0828
Inclination:      097.8775 deg
RA of node:       030.2151 deg
Eccentricity:    0.0016273
Arg of perigee:   124.9243 deg
Mean anomaly:     235.3473 deg
Mean motion:   14.82210091 rev/day
Decay rate:       7.24e-06 rev/day^2
Epoch rev:           13912
Checksum:              285

Satellite: DO-64
Catalog number: 32789
Epoch time:      10327.69300256
Element set:    0846
Inclination:      097.8848 deg
RA of node:       030.9415 deg
Eccentricity:    0.0016442
Arg of perigee:   123.7199 deg
Mean anomaly:     236.5595 deg
Mean motion:   14.82452962 rev/day
Decay rate:      1.333e-05 rev/day^2
Epoch rev:           13913
Checksum:              330

Satellite: CO-66
Catalog number: 32791
Epoch time:      10327.15585530
Element set:    0829
Inclination:      097.8791 deg
RA of node:       029.5691 deg
Eccentricity:    0.0016850
Arg of perigee:   124.2363 deg
Mean anomaly:     236.0467 deg
Mean motion:   14.81810119 rev/day
Decay rate:       7.66e-06 rev/day^2
Epoch rev:           13899
Checksum:              333

Satellite: RS-30
Catalog number: 32953
Epoch time:      10327.98100920
Element set:     240
Inclination:      082.4992 deg
RA of node:       290.3101 deg
Eccentricity:    0.0019845
Arg of perigee:   110.9353 deg
Mean anomaly:     249.3847 deg
Mean motion:   12.43009393 rev/day
Decay rate:        1.0e-07 rev/day^2
Epoch rev:           11359
Checksum:              274

Satellite: TACSAT-3
Catalog number: 35001
Epoch time:      10327.49477394
Element set:    0450
Inclination:      040.4562 deg
RA of node:       335.9646 deg
Eccentricity:    0.0020986
Arg of perigee:   118.6184 deg
Mean anomaly:     241.6746 deg
Mean motion:   15.43740116 rev/day
Decay rate:      7.578e-05 rev/day^2
Epoch rev:           08524
Checksum:              309

Satellite: PHARMSAT
Catalog number: 35002
Epoch time:      10327.40364120
Element set:    0410
Inclination:      040.4710 deg
RA of node:       334.0792 deg
Eccentricity:    0.0023370
Arg of perigee:   121.3079 deg
Mean anomaly:     239.0027 deg
Mean motion:   15.44052169 rev/day
Decay rate:      6.584e-05 rev/day^2
Epoch rev:           08525
Checksum:              241

Satellite: HAWKSAT1
Catalog number: 35003
Epoch time:      10327.41830917
Element set:     445
Inclination:      040.4616 deg
RA of node:       322.8696 deg
Eccentricity:    0.0022479
Arg of perigee:   146.8516 deg
Mean anomaly:     213.3717 deg
Mean motion:   15.49362289 rev/day
Decay rate:     1.6400e-04 rev/day^2
Epoch rev:            8538
Checksum:              298

Satellite: CP6
Catalog number: 35004
Epoch time:      10326.39267207
Element set:    0449
Inclination:      040.4635 deg
RA of node:       326.4908 deg
Eccentricity:    0.0022131
Arg of perigee:   146.2049 deg
Mean anomaly:     214.0189 deg
Mean motion:   15.51054264 rev/day
Decay rate:     2.1731e-04 rev/day^2
Epoch rev:           08524
Checksum:              270

Satellite: AEROCUB3
Catalog number: 35005
Epoch time:      10327.29876736
Element set:    0535
Inclination:      040.4691 deg
RA of node:       303.2459 deg
Eccentricity:    0.0025150
Arg of perigee:   180.7929 deg
Mean anomaly:     179.2861 deg
Mean motion:   15.73897507 rev/day
Decay rate:    1.95324e-03 rev/day^2
Epoch rev:           08558
Checksum:              331

Satellite: METEOR-M
Catalog number: 35865
Epoch time:      10328.01857395
Element set:     862
Inclination:      098.7374 deg
RA of node:       020.4998 deg
Eccentricity:    0.0001738
Arg of perigee:   275.5478 deg
Mean anomaly:     084.5492 deg
Mean motion:   14.21833183 rev/day
Decay rate:       1.76e-06 rev/day^2
Epoch rev:            6143
Checksum:              326

